| time (UTC) | temp C | wind direction | speed KPH | gust KPH | rain 1hr cm | rain 24hr cm | rain mn cm | humidity % | barometer mb |
| 20260504043106 | 12 | 265 | 0.0 | 3.2 | 0.00 | 1.60 | 0.00 | 92 | 1012.1 |
| 20260504041520 | 12 | 269 | 1.6 | 3.2 | 0.00 | 1.60 | 0.00 | 92 | 1012.1 |
| 20260504040154 | 12 | 269 | 0.0 | 0.0 | 0.00 | 1.60 | 0.00 | 93 | 1012.3 |
| 20260504034538 | 12 | 269 | 0.0 | 3.2 | 0.00 | 1.60 | 0.00 | 92 | 1012.4 |
| 20260504033124 | 12 | 269 | 0.0 | 3.2 | 0.00 | 1.60 | 0.00 | 92 | 1012.3 |
| 20260504031614 | 12 | 239 | 1.6 | 3.2 | 0.00 | 1.60 | 0.00 | 92 | 1012.6 |
| 20260504024551 | 12 | 267 | 1.6 | 3.2 | 0.00 | 1.65 | 0.00 | 93 | 1012.6 |
| 20260504023135 | 12 | 267 | 1.6 | 6.4 | 0.00 | 1.65 | 0.00 | 93 | 1012.7 |
| 20260504021631 | 12 | 248 | 0.0 | 4.8 | 0.00 | 1.65 | 0.00 | 94 | 1012.1 |
| 20260504020115 | 12 | 274 | 0.0 | 3.2 | 0.00 | 1.65 | 0.00 | 94 | 1012.5 |
| 20260504014536 | 12 | 256 | 0.0 | 3.2 | 0.00 | 1.65 | 0.00 | 94 | 1012.7 |
| 20260504013135 | 12 | 256 | 0.0 | 3.2 | 0.00 | 1.65 | 0.00 | 94 | 1013.0 |
| 20260504011515 | 11 | 247 | 0.0 | 4.8 | 0.00 | 1.65 | 0.00 | 93 | 1012.9 |
| 20260504010156 | 11 | 258 | 1.6 | 4.8 | 0.00 | 1.65 | 0.00 | 93 | 1013.0 |
| 20260504004516 | 11 | 251 | 1.6 | 6.4 | 0.00 | 1.78 | 0.00 | 93 | 1013.1 |
| 20260504003047 | 12 | 279 | 1.6 | 6.4 | 0.00 | 1.78 | 0.00 | 93 | 1013.4 |
| 20260504001521 | 12 | 266 | 3.2 | 6.4 | 0.00 | 1.78 | 0.00 | 92 | 1013.4 |
| 20260504000141 | 12 | 281 | 0.0 | 3.2 | 0.00 | 1.78 | 0.00 | 92 | 1013.4 |
| 20260503234622 | 12 | 281 | 1.6 | 3.2 | 0.00 | 1.91 | 0.00 | 92 | 1013.4 |
| 20260503233102 | 13 | 311 | 0.0 | 3.2 | 0.00 | 1.91 | 0.00 | 92 | 1013.4 |
| 20260503231606 | 13 | 311 | 1.6 | 3.2 | 0.00 | 1.91 | 0.00 | 92 | 1013.6 |
| 20260503230105 | 13 | 311 | 0.0 | 3.2 | 0.00 | 1.91 | 0.00 | 92 | 1013.7 |
| 20260503224552 | 13 | 9 | 0.0 | 3.2 | 0.00 | 1.93 | 0.00 | 92 | 1013.9 |
| 20260503223030 | 13 | 9 | 0.0 | 3.2 | 0.00 | 1.93 | 0.00 | 91 | 1014.1 |
| 20260503221607 | 13 | 9 | 0.0 | 3.2 | 0.00 | 1.93 | 0.00 | 91 | 1014.1 |
| 20260503220004 | 13 | 9 | 0.0 | 3.2 | 0.00 | 1.93 | 1.93 | 90 | 1013.8 |
| 20260503214557 | 13 | 9 | 0.0 | 3.2 | 0.00 | 1.93 | 1.93 | 90 | 1013.9 |
| 20260503211559 | 13 | 9 | 0.0 | 1.6 | 0.00 | 1.93 | 1.93 | 90 | 1013.8 |
| 20260503210129 | 13 | 9 | 1.6 | 3.2 | 0.00 | 1.93 | 1.93 | 90 | 1013.6 |
| 20260503204542 | 13 | 9 | 0.0 | 4.8 | 0.00 | 1.93 | 1.93 | 90 | 1013.6 |
| 20260503201649 | 13 | 49 | 1.6 | 4.8 | 0.00 | 1.93 | 1.93 | 91 | 1013.5 |
| 20260503200010 | 13 | 15 | 3.2 | 8.0 | 0.00 | 1.93 | 1.93 | 91 | 1013.4 |
| 20260503194516 | 13 | 29 | 1.6 | 6.4 | 0.00 | 1.93 | 1.93 | 91 | 1013.6 |
| 20260503193057 | 13 | 46 | 1.6 | 4.8 | 0.00 | 1.93 | 1.93 | 90 | 1013.5 |
| 20260503191653 | 13 | 70 | 0.0 | 3.2 | 0.00 | 1.93 | 1.93 | 90 | 1013.4 |
| 20260503190039 | 13 | 70 | 1.6 | 6.4 | 0.00 | 1.93 | 1.93 | 89 | 1013.3 |
| 20260503184650 | 13 | 81 | 1.6 | 9.7 | 0.00 | 1.93 | 1.93 | 88 | 1013.3 |
| 20260503183122 | 13 | 84 | 1.6 | 8.0 | 0.00 | 1.93 | 1.93 | 85 | 1013.1 |
| 20260503181611 | 13 | 89 | 4.8 | 14.5 | 0.00 | 1.93 | 1.93 | 83 | 1012.9 |
| 20260503180136 | 14 | 83 | 4.8 | 9.7 | 0.00 | 1.93 | 1.93 | 88 | 1013.0 |
| 20260503174647 | 14 | 92 | 1.6 | 8.0 | 0.00 | 1.93 | 1.93 | 86 | 1013.0 |
| 20260503173105 | 14 | 82 | 4.8 | 12.9 | 0.00 | 1.93 | 1.93 | 84 | 1013.0 |
| 20260503080111 | 12 | 334 | 4.8 | 8.0 | 0.15 | 1.40 | 0.86 | 93 | 1015.6 |
| 20260503071640 | 12 | 123 | 0.0 | 3.2 | 0.28 | 1.40 | 0.84 | 94 | 1015.5 |
| 20260503070134 | 12 | 123 | 0.0 | 3.2 | 0.23 | 1.27 | 0.71 | 92 | 1015.7 |